Wetterdaten: Donnerstag, 10.08.2023
Datum Zeit Temp. Aussen Temp. o. S. Temp +5cm Feuchte Auss Luftdruck Regen Sonnenschein Regendauer Solar Windben Empfang
10.08.2023 00:00 15,2 C 13,3 C 10,0 C 87 % 1020,6 hPa 0,0 l/m 0 min 0 min 0 W/m 0,0 km/h (0 Bft) 98,25 %
10.08.2023 00:05 15,1 C 13,3 C 10,0 C 87 % 1020,6 hPa 0,0 l/m 0 min 0 min 0 W/m 0,0 km/h (0 Bft) 28,95 %
10.08.2023 00:10 14,9 C 13,3 C 10,0 C 88 % 1020,6 hPa 0,0 l/m 0 min 0 min 0 W/m 0,0 km/h (0 Bft) 98,25 %
10.08.2023 00:15 14,8 C 13,3 C 10,0 C 88 % 1020,6 hPa 0,0 l/m 0 min 0 min 0 W/m 0,0 km/h (0 Bft) 100,00 %
10.08.2023 00:20 14,7 C 12,8 C 10,0 C 88 % 1020,6 hPa 0,0 l/m 0 min 0 min 0 W/m 0,0 km/h (0 Bft) 100,00 %
10.08.2023 00:25 14,6 C 12,8 C 10,0 C 88 % 1020,7 hPa 0,0 l/m 0 min 0 min 0 W/m 0,0 km/h (0 Bft) 100,00 %
10.08.2023 00:30 14,4 C 12,8 C 9,4 C 89 % 1020,8 hPa 0,0 l/m 0 min 0 min 0 W/m 0,0 km/h (0 Bft) 100,00 %
10.08.2023 00:35 14,3 C 12,8 C 9,4 C 89 % 1020,8 hPa 0,0 l/m 0 min 0 min 0 W/m 0,0 km/h (0 Bft) 100,00 %
10.08.2023 00:40 14,3 C 12,8 C 9,4 C 90 % 1020,9 hPa 0,0 l/m 0 min 0 min 0 W/m 0,0 km/h (0 Bft) 100,00 %
10.08.2023 00:45 14,3 C 12,8 C 9,4 C 90 % 1020,9 hPa 0,0 l/m 0 min 0 min 0 W/m 0,0 km/h (0 Bft) 98,25 %
10.08.2023 00:50 14,2 C 12,8 C 9,4 C 90 % 1020,9 hPa 0,0 l/m 0 min 0 min 0 W/m 0,0 km/h (0 Bft) 100,00 %
10.08.2023 00:55 14,1 C 12,8 C 9,4 C 91 % 1021,0 hPa 0,0 l/m 0 min 0 min 0 W/m 0,0 km/h (0 Bft) 100,00 %
10.08.2023 01:00 14,0 C 12,2 C 9,4 C 91 % 1021,0 hPa 0,0 l/m 0 min 0 min 0 W/m 0,0 km/h (0 Bft) 100,00 %
10.08.2023 01:05 13,9 C 12,2 C 9,4 C 91 % 1021,0 hPa 0,0 l/m 0 min 0 min 0 W/m 0,0 km/h (0 Bft) 100,00 %
10.08.2023 01:10 13,8 C 12,2 C 9,4 C 91 % 1021,0 hPa 0,0 l/m 0 min 0 min 0 W/m 0,0 km/h (0 Bft) 100,00 %
10.08.2023 01:15 13,7 C 12,2 C 9,4 C 91 % 1021,1 hPa 0,0 l/m 0 min 0 min 0 W/m 3,2 km/h (1 Bft) 100,00 %
10.08.2023 01:20 13,7 C 12,2 C 9,4 C 91 % 1021,1 hPa 0,0 l/m 0 min 0 min 0 W/m 0,0 km/h (0 Bft) 100,00 %
10.08.2023 01:25 13,6 C 12,2 C 9,4 C 92 % 1021,1 hPa 0,0 l/m 0 min 0 min 0 W/m 0,0 km/h (0 Bft) 98,25 %
10.08.2023 01:30 13,6 C 12,2 C 8,9 C 92 % 1021,1 hPa 0,0 l/m 0 min 0 min 0 W/m 0,0 km/h (0 Bft) 99,12 %
10.08.2023 01:35 13,5 C 12,2 C 8,9 C 92 % 1021,1 hPa 0,0 l/m 0 min 0 min 0 W/m 0,0 km/h (0 Bft) 100,00 %
10.08.2023 01:40 13,4 C 12,2 C 8,9 C 92 % 1021,1 hPa 0,0 l/m 0 min 0 min 0 W/m 0,0 km/h (0 Bft) 100,00 %
10.08.2023 01:45 13,3 C 12,2 C 8,9 C 92 % 1021,2 hPa 0,0 l/m 0 min 0 min 0 W/m 0,0 km/h (0 Bft) 100,00 %
10.08.2023 01:50 13,3 C 12,2 C 8,9 C 92 % 1021,3 hPa 0,0 l/m 0 min 0 min 0 W/m 0,0 km/h (0 Bft) 100,00 %
10.08.2023 01:55 13,2 C 12,2 C 8,9 C 92 % 1021,2 hPa 0,0 l/m 0 min 0 min 0 W/m 0,0 km/h (0 Bft) 100,00 %
10.08.2023 02:00 13,1 C 11,7 C 8,9 C 92 % 1021,2 hPa 0,0 l/m 0 min 0 min 0 W/m 0,0 km/h (0 Bft) 100,00 %
10.08.2023 02:05 13,1 C 11,7 C 8,9 C 92 % 1021,3 hPa 0,0 l/m 0 min 0 min 0 W/m 0,0 km/h (0 Bft) 100,00 %
10.08.2023 02:10 13,0 C 11,7 C 8,9 C 93 % 1021,3 hPa 0,0 l/m 0 min 0 min 0 W/m 0,0 km/h (0 Bft) 100,00 %
10.08.2023 02:15 13,0 C 11,7 C 8,9 C 93 % 1021,3 hPa 0,0 l/m 0 min 0 min 0 W/m 0,0 km/h (0 Bft) 91,23 %
10.08.2023 02:20 13,0 C 12,2 C 8,9 C 93 % 1021,4 hPa 0,0 l/m 0 min 0 min 0 W/m 0,0 km/h (0 Bft) 80,70 %
10.08.2023 02:25 13,0 C 12,2 C 8,9 C 93 % 1021,4 hPa 0,0 l/m 0 min 0 min 0 W/m 0,0 km/h (0 Bft) 66,67 %
10.08.2023 02:30 13,0 C 12,2 C 8,9 C 93 % 1021,4 hPa 0,0 l/m 0 min 0 min 0 W/m 0,0 km/h (0 Bft) 98,25 %
10.08.2023 02:35 13,1 C 12,2 C 9,4 C 94 % 1021,3 hPa 0,0 l/m 0 min 0 min 0 W/m 0,0 km/h (0 Bft) 98,25 %
10.08.2023 02:40 13,1 C 12,8 C 9,4 C 94 % 1021,3 hPa 0,0 l/m 0 min 0 min 0 W/m 0,0 km/h (0 Bft) 97,37 %
10.08.2023 02:45 13,1 C 12,8 C 9,4 C 94 % 1021,2 hPa 0,0 l/m 0 min 0 min 0 W/m 0,0 km/h (0 Bft) 97,37 %
10.08.2023 02:50 13,1 C 12,8 C 9,4 C 94 % 1021,2 hPa 0,0 l/m 0 min 0 min 0 W/m 0,0 km/h (0 Bft) 98,25 %
10.08.2023 02:55 13,1 C 12,8 C 9,4 C 94 % 1021,2 hPa 0,0 l/m 0 min 0 min 0 W/m 0,0 km/h (0 Bft) 96,49 %
10.08.2023 03:00 13,1 C 12,8 C 9,4 C 94 % 1021,2 hPa 0,0 l/m 0 min 0 min 0 W/m 3,2 km/h (1 Bft) 98,25 %
10.08.2023 03:05 13,1 C 12,8 C 9,4 C 93 % 1021,3 hPa 0,0 l/m 0 min 0 min 0 W/m 3,2 km/h (1 Bft) 100,00 %
10.08.2023 03:10 13,1 C 12,8 C 9,4 C 93 % 1021,3 hPa 0,0 l/m 0 min 0 min 0 W/m 0,0 km/h (0 Bft) 97,37 %
10.08.2023 03:15 13,2 C 12,8 C 9,4 C 94 % 1021,3 hPa 0,0 l/m 0 min 0 min 0 W/m 0,0 km/h (0 Bft) 98,25 %
10.08.2023 03:20 13,2 C 12,8 C 9,4 C 93 % 1021,2 hPa 0,0 l/m 0 min 0 min 0 W/m 0,0 km/h (0 Bft) 96,49 %
10.08.2023 03:25 13,3 C 12,8 C 9,4 C 94 % 1021,3 hPa 0,0 l/m 0 min 0 min 0 W/m 0,0 km/h (0 Bft) 100,00 %
10.08.2023 03:30 13,3 C 12,8 C 10,0 C 94 % 1021,3 hPa 0,0 l/m 0 min 0 min 0 W/m 0,0 km/h (0 Bft) 100,00 %
10.08.2023 03:35 13,3 C 12,8 C 9,4 C 93 % 1021,4 hPa 0,0 l/m 0 min 0 min 0 W/m 0,0 km/h (0 Bft) 100,00 %
10.08.2023 03:40 13,3 C 12,8 C 10,0 C 93 % 1021,5 hPa 0,0 l/m 0 min 0 min 0 W/m 0,0 km/h (0 Bft) 100,00 %
10.08.2023 03:45 13,3 C 12,8 C 10,0 C 93 % 1021,5 hPa 0,0 l/m 0 min 0 min 0 W/m 0,0 km/h (0 Bft) 100,00 %
10.08.2023 03:50 13,4 C 12,8 C 10,0 C 93 % 1021,5 hPa 0,0 l/m 0 min 0 min 0 W/m 0,0 km/h (0 Bft) 100,00 %
10.08.2023 03:55 13,4 C 12,8 C 10,0 C 93 % 1021,5 hPa 0,0 l/m 0 min 0 min 0 W/m 0,0 km/h (0 Bft) 100,00 %
10.08.2023 04:00 13,4 C 13,3 C 10,0 C 92 % 1021,5 hPa 0,0 l/m 0 min 0 min 0 W/m 0,0 km/h (0 Bft) 100,00 %
10.08.2023 04:05 13,5 C 13,3 C 10,0 C 92 % 1021,5 hPa 0,0 l/m 0 min 0 min 0 W/m 0,0 km/h (0 Bft) 100,00 %
10.08.2023 04:10 13,6 C 13,3 C 10,0 C 92 % 1021,5 hPa 0,0 l/m 0 min 0 min 0 W/m 0,0 km/h (0 Bft) 100,00 %
10.08.2023 04:15 13,6 C 13,3 C 10,0 C 91 % 1021,5 hPa 0,0 l/m 0 min 0 min 0 W/m 0,0 km/h (0 Bft) 100,00 %
10.08.2023 04:20 13,6 C 13,3 C 9,4 C 91 % 1021,5 hPa 0,0 l/m 0 min 0 min 0 W/m 0,0 km/h (0 Bft) 100,00 %
10.08.2023 04:25 13,6 C 12,8 C 9,4 C 91 % 1021,5 hPa 0,0 l/m 0 min 0 min 0 W/m 0,0 km/h (0 Bft) 100,00 %
10.08.2023 04:30 13,6 C 12,8 C 9,4 C 91 % 1021,5 hPa 0,0 l/m 0 min 0 min 0 W/m 0,0 km/h (0 Bft) 100,00 %
10.08.2023 04:35 13,7 C 12,8 C 9,4 C 91 % 1021,4 hPa 0,0 l/m 0 min 0 min 0 W/m 0,0 km/h (0 Bft) 100,00 %
10.08.2023 04:40 13,7 C 12,8 C 9,4 C 91 % 1021,4 hPa 0,0 l/m 0 min 0 min 0 W/m 0,0 km/h (0 Bft) 96,49 %
10.08.2023 04:45 13,7 C 12,8 C 9,4 C 91 % 1021,4 hPa 0,0 l/m 0 min 0 min 0 W/m 0,0 km/h (0 Bft) 98,25 %
10.08.2023 04:50 13,6 C 12,2 C 9,4 C 91 % 1021,4 hPa 0,0 l/m 0 min 0 min 0 W/m 0,0 km/h (0 Bft) 97,37 %
10.08.2023 04:55 13,6 C 12,2 C 9,4 C 90 % 1021,4 hPa 0,0 l/m 0 min 0 min 0 W/m 0,0 km/h (0 Bft) 96,49 %
10.08.2023 05:00 13,4 C 12,2 C 8,9 C 90 % 1021,5 hPa 0,0 l/m 0 min 0 min 0 W/m 0,0 km/h (0 Bft) 99,12 %
10.08.2023 05:05 13,4 C 12,2 C 8,9 C 90 % 1021,6 hPa 0,0 l/m 0 min 0 min 0 W/m 0,0 km/h (0 Bft) 99,12 %
10.08.2023 05:10 13,4 C 12,2 C 8,9 C 91 % 1021,6 hPa 0,0 l/m 0 min 0 min 0 W/m 0,0 km/h (0 Bft) 100,00 %
10.08.2023 05:15 13,3 C 11,7 C 8,9 C 91 % 1021,6 hPa 0,0 l/m 0 min 0 min 0 W/m 0,0 km/h (0 Bft) 100,00 %
10.08.2023 05:20 13,3 C 11,7 C 8,9 C 91 % 1021,6 hPa 0,0 l/m 0 min 0 min 0 W/m 0,0 km/h (0 Bft) 100,00 %
10.08.2023 05:25 13,2 C 11,7 C 8,9 C 91 % 1021,6 hPa 0,0 l/m 0 min 0 min 0 W/m 0,0 km/h (0 Bft) 93,86 %
10.08.2023 05:30 13,2 C 11,7 C 8,9 C 91 % 1021,7 hPa 0,0 l/m 0 min 0 min 0 W/m 0,0 km/h (0 Bft) 100,00 %
10.08.2023 05:35 13,1 C 12,2 C 8,9 C 91 % 1021,7 hPa 0,0 l/m 0 min 0 min 0 W/m 0,0 km/h (0 Bft) 100,00 %
10.08.2023 05:40 13,1 C 11,7 C 8,9 C 91 % 1021,7 hPa 0,0 l/m 0 min 0 min 0 W/m 0,0 km/h (0 Bft) 100,00 %
10.08.2023 05:45 13,0 C 11,7 C 8,9 C 92 % 1021,7 hPa 0,0 l/m 0 min 0 min 0 W/m 0,0 km/h (0 Bft) 100,00 %
10.08.2023 05:50 12,9 C 11,7 C 8,3 C 92 % 1021,8 hPa 0,0 l/m 0 min 0 min 0 W/m 0,0 km/h (0 Bft) 100,00 %
10.08.2023 05:55 12,8 C 11,7 C 8,3 C 92 % 1021,8 hPa 0,0 l/m 0 min 0 min 0 W/m 0,0 km/h (0 Bft) 100,00 %
10.08.2023 06:00 12,8 C 11,7 C 8,3 C 92 % 1021,8 hPa 0,0 l/m 0 min 0 min 0 W/m 0,0 km/h (0 Bft) 100,00 %
10.08.2023 06:05 12,7 C 11,7 C 8,3 C 92 % 1021,9 hPa 0,0 l/m 0 min 0 min 0 W/m 0,0 km/h (0 Bft) 85,09 %
10.08.2023 06:10 12,6 C 11,7 C 8,3 C 92 % 1021,9 hPa 0,0 l/m 0 min 0 min 0 W/m 0,0 km/h (0 Bft) 90,35 %
10.08.2023 06:15 12,6 C 11,1 C 8,3 C 92 % 1021,9 hPa 0,0 l/m 0 min 0 min 0 W/m 0,0 km/h (0 Bft) 97,37 %
10.08.2023 06:20 12,5 C 11,1 C 8,3 C 92 % 1021,9 hPa 0,0 l/m 0 min 0 min 2 W/m 0,0 km/h (0 Bft) 99,12 %
10.08.2023 06:25 12,4 C 11,1 C 8,3 C 92 % 1022,0 hPa 0,0 l/m 0 min 0 min 5 W/m 0,0 km/h (0 Bft) 97,37 %
10.08.2023 06:30 12,4 C 11,1 C 8,3 C 92 % 1022,0 hPa 0,0 l/m 0 min 0 min 7 W/m 0,0 km/h (0 Bft) 79,82 %
10.08.2023 06:35 12,3 C 11,7 C 8,3 C 93 % 1022,0 hPa 0,0 l/m 0 min 0 min 8 W/m 0,0 km/h (0 Bft) 96,49 %
10.08.2023 06:40 12,3 C 11,7 C 8,3 C 93 % 1022,0 hPa 0,0 l/m 0 min 0 min 11 W/m 0,0 km/h (0 Bft) 97,37 %
10.08.2023 06:45 12,3 C 11,7 C 8,3 C 93 % 1022,1 hPa 0,0 l/m 0 min 0 min 15 W/m 0,0 km/h (0 Bft) 98,25 %
10.08.2023 06:50 12,3 C 11,7 C 8,9 C 93 % 1022,1 hPa 0,0 l/m 0 min 0 min 19 W/m 0,0 km/h (0 Bft) 100,00 %
10.08.2023 06:55 12,4 C 12,2 C 8,9 C 93 % 1022,1 hPa 0,0 l/m 0 min 0 min 19 W/m 0,0 km/h (0 Bft) 97,37 %
10.08.2023 07:00 12,4 C 12,2 C 8,9 C 93 % 1022,2 hPa 0,0 l/m 0 min 0 min 17 W/m 0,0 km/h (0 Bft) 97,37 %
10.08.2023 07:05 12,4 C 11,7 C 8,9 C 93 % 1022,2 hPa 0,0 l/m 0 min 0 min 14 W/m 0,0 km/h (0 Bft) 98,25 %
10.08.2023 07:10 12,4 C 11,7 C 8,9 C 93 % 1022,1 hPa 0,0 l/m 0 min 0 min 16 W/m 0,0 km/h (0 Bft) 81,58 %
10.08.2023 07:15 12,4 C 11,7 C 8,9 C 94 % 1022,1 hPa 0,0 l/m 0 min 0 min 16 W/m 0,0 km/h (0 Bft) 100,00 %
10.08.2023 07:20 12,5 C 11,7 C 8,3 C 94 % 1022,1 hPa 0,0 l/m 0 min 0 min 18 W/m 0,0 km/h (0 Bft) 100,00 %
10.08.2023 07:25 12,5 C 11,7 C 8,3 C 94 % 1022,0 hPa 0,0 l/m 0 min 0 min 19 W/m 0,0 km/h (0 Bft) 99,12 %
10.08.2023 07:30 12,6 C 11,7 C 8,9 C 94 % 1022,0 hPa 0,0 l/m 0 min 0 min 19 W/m 0,0 km/h (0 Bft) 100,00 %
10.08.2023 07:35 12,6 C 12,2 C 8,9 C 94 % 1022,1 hPa 0,0 l/m 0 min 0 min 21 W/m 0,0 km/h (0 Bft) 100,00 %
10.08.2023 07:40 12,6 C 12,2 C 8,9 C 94 % 1022,1 hPa 0,0 l/m 0 min 0 min 22 W/m 0,0 km/h (0 Bft) 100,00 %
10.08.2023 07:45 12,7 C 12,2 C 8,9 C 94 % 1022,2 hPa 0,0 l/m 0 min 0 min 25 W/m 0,0 km/h (0 Bft) 100,00 %
10.08.2023 07:50 12,7 C 12,8 C 9,4 C 94 % 1022,2 hPa 0,0 l/m 0 min 0 min 25 W/m 0,0 km/h (0 Bft) 100,00 %
10.08.2023 07:55 12,8 C 12,8 C 9,4 C 94 % 1022,2 hPa 0,0 l/m 0 min 0 min 25 W/m 0,0 km/h (0 Bft) 100,00 %
10.08.2023 08:00 12,9 C 12,8 C 9,4 C 94 % 1022,2 hPa 0,0 l/m 0 min 0 min 26 W/m 0,0 km/h (0 Bft) 100,00 %
10.08.2023 08:05 13,0 C 13,3 C 9,4 C 94 % 1022,2 hPa 0,0 l/m 0 min 0 min 26 W/m 3,2 km/h (1 Bft) 100,00 %
10.08.2023 08:10 13,1 C 13,3 C 10,0 C 95 % 1022,1 hPa 0,0 l/m 0 min 0 min 28 W/m 0,0 km/h (0 Bft) 100,00 %
10.08.2023 08:15 13,2 C 13,3 C 10,0 C 94 % 1022,1 hPa 0,0 l/m 0 min 0 min 29 W/m 6,4 km/h (2 Bft) 100,00 %
10.08.2023 08:20 13,3 C 13,9 C 10,0 C 94 % 1022,1 hPa 0,0 l/m 0 min 0 min 51 W/m 0,0 km/h (0 Bft) 100,00 %
10.08.2023 08:25 13,4 C 13,9 C 10,6 C 94 % 1022,2 hPa 0,0 l/m 0 min 0 min 117 W/m 6,4 km/h (2 Bft) 100,00 %
10.08.2023 08:30 13,6 C 14,4 C 10,6 C 94 % 1022,2 hPa 0,0 l/m 0 min 0 min 90 W/m 3,2 km/h (1 Bft) 100,00 %
10.08.2023 08:35 13,7 C 14,4 C 10,6 C 94 % 1022,2 hPa 0,0 l/m 5 min 0 min 299 W/m 3,2 km/h (1 Bft) 100,00 %
10.08.2023 08:40 13,8 C 14,4 C 10,6 C 93 % 1022,2 hPa 0,0 l/m 5 min 0 min 316 W/m 6,4 km/h (2 Bft) 100,00 %
10.08.2023 08:45 14,1 C 15,0 C 11,1 C 93 % 1022,3 hPa 0,0 l/m 5 min 0 min 317 W/m 3,2 km/h (1 Bft) 83,33 %
10.08.2023 08:50 14,3 C 15,0 C 11,1 C 92 % 1022,3 hPa 0,0 l/m 5 min 0 min 350 W/m 3,2 km/h (1 Bft) 100,00 %
10.08.2023 08:55 14,4 C 18,3 C 11,1 C 91 % 1022,3 hPa 0,0 l/m 5 min 0 min 367 W/m 0,0 km/h (0 Bft) 100,00 %
10.08.2023 09:00 14,8 C 22,2 C 11,1 C 90 % 1022,3 hPa 0,0 l/m 5 min 0 min 383 W/m 3,2 km/h (1 Bft) 100,00 %
10.08.2023 09:05 15,2 C 25,0 C 12,2 C 88 % 1022,3 hPa 0,0 l/m 5 min 0 min 402 W/m 3,2 km/h (1 Bft) 100,00 %
10.08.2023 09:10 15,6 C 25,6 C 13,3 C 86 % 1022,2 hPa 0,0 l/m 5 min 0 min 419 W/m 0,0 km/h (0 Bft) 100,00 %
10.08.2023 09:15 16,1 C 26,1 C 14,4 C 84 % 1022,2 hPa 0,0 l/m 5 min 0 min 434 W/m 0,0 km/h (0 Bft) 100,00 %
10.08.2023 09:20 16,6 C 26,1 C 15,0 C 81 % 1022,1 hPa 0,0 l/m 5 min 0 min 445 W/m 0,0 km/h (0 Bft) 98,25 %
10.08.2023 09:25 17,2 C 26,1 C 15,6 C 80 % 1022,1 hPa 0,0 l/m 5 min 0 min 459 W/m 0,0 km/h (0 Bft) 100,00 %
10.08.2023 09:30 17,7 C 26,1 C 15,6 C 77 % 1022,1 hPa 0,0 l/m 5 min 0 min 470 W/m 0,0 km/h (0 Bft) 99,12 %
10.08.2023 09:35 18,0 C 25,0 C 15,0 C 73 % 1022,2 hPa 0,0 l/m 5 min 0 min 461 W/m 0,0 km/h (0 Bft) 100,00 %
10.08.2023 09:40 18,3 C 25,0 C 15,0 C 71 % 1022,3 hPa 0,0 l/m 5 min 0 min 497 W/m 0,0 km/h (0 Bft) 99,12 %
10.08.2023 09:45 18,6 C 23,9 C 14,4 C 69 % 1022,2 hPa 0,0 l/m 5 min 0 min 507 W/m 0,0 km/h (0 Bft) 99,12 %
10.08.2023 09:50 18,8 C 22,2 C 13,9 C 67 % 1022,3 hPa 0,0 l/m 5 min 0 min 520 W/m 0,0 km/h (0 Bft) 100,00 %
10.08.2023 09:55 18,9 C 22,8 C 13,9 C 67 % 1022,3 hPa 0,0 l/m 5 min 0 min 534 W/m 0,0 km/h (0 Bft) 100,00 %
10.08.2023 10:00 19,1 C 21,7 C 13,3 C 66 % 1022,2 hPa 0,0 l/m 5 min 0 min 549 W/m 0,0 km/h (0 Bft) 99,12 %
10.08.2023 10:05 19,1 C 20,6 C 13,3 C 65 % 1022,3 hPa 0,0 l/m 5 min 0 min 560 W/m 0,0 km/h (0 Bft) 97,37 %
10.08.2023 10:10 19,1 C 20,0 C 13,3 C 65 % 1022,2 hPa 0,0 l/m 5 min 0 min 369 W/m 3,2 km/h (1 Bft) 80,70 %
10.08.2023 10:15 19,0 C 19,4 C 13,3 C 63 % 1022,2 hPa 0,0 l/m 5 min 0 min 317 W/m 0,0 km/h (0 Bft) 100,00 %
10.08.2023 10:20 19,0 C 20,6 C 13,3 C 65 % 1022,2 hPa 0,0 l/m 5 min 0 min 487 W/m 0,0 km/h (0 Bft) 97,37 %
10.08.2023 10:25 19,1 C 21,1 C 13,3 C 66 % 1022,3 hPa 0,0 l/m 5 min 0 min 609 W/m 0,0 km/h (0 Bft) 99,12 %
10.08.2023 10:30 19,1 C 22,8 C 13,3 C 67 % 1022,3 hPa 0,0 l/m 5 min 0 min 622 W/m 0,0 km/h (0 Bft) 98,25 %
10.08.2023 10:35 19,2 C 22,2 C 13,9 C 67 % 1022,3 hPa 0,0 l/m 5 min 0 min 635 W/m 0,0 km/h (0 Bft) 100,00 %
10.08.2023 10:40 19,2 C 22,8 C 13,9 C 68 % 1022,2 hPa 0,0 l/m 5 min 0 min 647 W/m 0,0 km/h (0 Bft) 100,00 %
10.08.2023 10:45 19,3 C 21,7 C 13,9 C 66 % 1022,2 hPa 0,0 l/m 5 min 0 min 659 W/m 3,2 km/h (1 Bft) 100,00 %
10.08.2023 10:50 19,2 C 20,0 C 13,9 C 66 % 1022,2 hPa 0,0 l/m 5 min 0 min 671 W/m 0,0 km/h (0 Bft) 100,00 %
10.08.2023 10:55 19,3 C 20,0 C 13,9 C 67 % 1022,1 hPa 0,0 l/m 5 min 0 min 681 W/m 0,0 km/h (0 Bft) 100,00 %
10.08.2023 11:00 19,4 C 20,0 C 14,4 C 66 % 1022,0 hPa 0,0 l/m 5 min 0 min 691 W/m 0,0 km/h (0 Bft) 100,00 %
10.08.2023 11:05 19,6 C 20,6 C 14,4 C 67 % 1021,9 hPa 0,0 l/m 5 min 0 min 701 W/m 0,0 km/h (0 Bft) 100,00 %
10.08.2023 11:10 19,7 C 20,6 C 14,4 C 68 % 1022,0 hPa 0,0 l/m 5 min 0 min 711 W/m 0,0 km/h (0 Bft) 100,00 %
10.08.2023 11:15 19,9 C 20,6 C 15,0 C 69 % 1021,9 hPa 0,0 l/m 5 min 0 min 721 W/m 0,0 km/h (0 Bft) 100,00 %
10.08.2023 11:20 20,2 C 21,1 C 15,6 C 68 % 1021,9 hPa 0,0 l/m 5 min 0 min 729 W/m 0,0 km/h (0 Bft) 100,00 %
10.08.2023 11:25 20,4 C 22,2 C 15,6 C 68 % 1021,9 hPa 0,0 l/m 5 min 0 min 737 W/m 0,0 km/h (0 Bft) 100,00 %
10.08.2023 11:30 20,6 C 25,0 C 15,6 C 67 % 1021,9 hPa 0,0 l/m 5 min 0 min 744 W/m 0,0 km/h (0 Bft) 100,00 %
10.08.2023 11:35 20,6 C 25,6 C 15,6 C 65 % 1021,9 hPa 0,0 l/m 5 min 0 min 752 W/m 3,2 km/h (1 Bft) 100,00 %
10.08.2023 11:40 20,6 C 24,4 C 16,7 C 65 % 1022,0 hPa 0,0 l/m 5 min 0 min 759 W/m 0,0 km/h (0 Bft) 100,00 %
10.08.2023 11:45 20,8 C 23,9 C 18,3 C 65 % 1022,0 hPa 0,0 l/m 5 min 0 min 768 W/m 0,0 km/h (0 Bft) 100,00 %
10.08.2023 11:50 21,1 C 24,4 C 18,9 C 66 % 1021,9 hPa 0,0 l/m 5 min 0 min 776 W/m 0,0 km/h (0 Bft) 98,25 %
10.08.2023 11:55 21,3 C 23,3 C 17,8 C 65 % 1021,9 hPa 0,0 l/m 5 min 0 min 786 W/m 3,2 km/h (1 Bft) 100,00 %
10.08.2023 12:00 21,5 C 23,3 C 17,2 C 65 % 1021,9 hPa 0,0 l/m 5 min 0 min 791 W/m 0,0 km/h (0 Bft) 99,12 %
10.08.2023 12:05 21,7 C 25,0 C 17,2 C 65 % 1021,9 hPa 0,0 l/m 5 min 0 min 796 W/m 0,0 km/h (0 Bft) 100,00 %
10.08.2023 12:10 21,9 C 27,8 C 17,2 C 65 % 1021,9 hPa 0,0 l/m 5 min 0 min 801 W/m 0,0 km/h (0 Bft) 98,25 %
10.08.2023 12:15 22,2 C 29,4 C 18,3 C 65 % 1022,0 hPa 0,0 l/m 5 min 0 min 809 W/m 0,0 km/h (0 Bft) 95,61 %
10.08.2023 12:20 22,4 C 30,6 C 19,4 C 64 % 1021,9 hPa 0,0 l/m 5 min 0 min 814 W/m 0,0 km/h (0 Bft) 98,25 %
10.08.2023 12:25 22,6 C 30,6 C 20,6 C 63 % 1021,9 hPa 0,0 l/m 5 min 0 min 818 W/m 0,0 km/h (0 Bft) 97,37 %
10.08.2023 12:30 22,9 C 31,1 C 20,6 C 63 % 1021,8 hPa 0,0 l/m 5 min 0 min 821 W/m 0,0 km/h (0 Bft) 100,00 %
10.08.2023 12:35 23,0 C 30,6 C 20,6 C 62 % 1021,8 hPa 0,0 l/m 5 min 0 min 824 W/m 6,4 km/h (2 Bft) 100,00 %
10.08.2023 12:40 23,2 C 31,1 C 19,4 C 62 % 1021,8 hPa 0,0 l/m 5 min 0 min 825 W/m 9,7 km/h (2 Bft) 100,00 %
10.08.2023 12:45 23,3 C 28,9 C 18,3 C 60 % 1021,9 hPa 0,0 l/m 5 min 0 min 825 W/m 6,4 km/h (2 Bft) 100,00 %
10.08.2023 12:50 23,4 C 26,7 C 18,3 C 60 % 1021,9 hPa 0,0 l/m 5 min 0 min 832 W/m 6,4 km/h (2 Bft) 100,00 %
10.08.2023 12:55 23,4 C 25,6 C 17,8 C 61 % 1021,9 hPa 0,0 l/m 5 min 0 min 839 W/m 9,7 km/h (2 Bft) 100,00 %
10.08.2023 13:00 23,3 C 26,1 C 17,2 C 60 % 1021,9 hPa 0,0 l/m 5 min 0 min 843 W/m 9,7 km/h (2 Bft) 100,00 %
10.08.2023 13:05 23,3 C 26,1 C 17,8 C 63 % 1021,8 hPa 0,0 l/m 5 min 0 min 848 W/m 6,4 km/h (2 Bft) 100,00 %
10.08.2023 13:10 23,4 C 24,4 C 17,8 C 61 % 1021,7 hPa 0,0 l/m 5 min 0 min 852 W/m 0,0 km/h (0 Bft) 100,00 %
10.08.2023 13:15 23,4 C 23,9 C 17,8 C 61 % 1021,8 hPa 0,0 l/m 5 min 0 min 705 W/m 9,7 km/h (2 Bft) 100,00 %
10.08.2023 13:20 23,2 C 23,3 C 17,8 C 62 % 1021,8 hPa 0,0 l/m 5 min 0 min 849 W/m 16,1 km/h (3 Bft) 100,00 %
10.08.2023 13:25 23,3 C 23,9 C 17,8 C 61 % 1021,8 hPa 0,0 l/m 5 min 0 min 865 W/m 6,4 km/h (2 Bft) 100,00 %
10.08.2023 13:30 23,5 C 25,0 C 17,8 C 61 % 1021,8 hPa 0,0 l/m 5 min 0 min 902 W/m 12,9 km/h (3 Bft) 100,00 %
10.08.2023 13:35 23,6 C 25,0 C 17,8 C 60 % 1021,7 hPa 0,0 l/m 5 min 0 min 878 W/m 6,4 km/h (2 Bft) 100,00 %
10.08.2023 13:40 23,6 C 25,6 C 17,8 C 60 % 1021,7 hPa 0,0 l/m 5 min 0 min 844 W/m 6,4 km/h (2 Bft) 100,00 %
10.08.2023 13:45 23,6 C 26,1 C 17,8 C 61 % 1021,6 hPa 0,0 l/m 5 min 0 min 828 W/m 12,9 km/h (3 Bft) 100,00 %
10.08.2023 13:50 23,6 C 28,9 C 17,8 C 60 % 1021,7 hPa 0,0 l/m 5 min 0 min 823 W/m 9,7 km/h (2 Bft) 100,00 %
10.08.2023 13:55 23,7 C 29,4 C 17,8 C 60 % 1021,6 hPa 0,0 l/m 5 min 0 min 892 W/m 9,7 km/h (2 Bft) 100,00 %
10.08.2023 14:00 23,8 C 30,6 C 18,3 C 60 % 1021,6 hPa 0,0 l/m 5 min 0 min 907 W/m 12,9 km/h (3 Bft) 99,12 %
10.08.2023 14:05 23,9 C 31,7 C 17,8 C 60 % 1021,5 hPa 0,0 l/m 5 min 0 min 893 W/m 9,7 km/h (2 Bft) 93,86 %
10.08.2023 14:10 24,1 C 32,2 C 17,8 C 59 % 1021,4 hPa 0,0 l/m 5 min 0 min 893 W/m 16,1 km/h (3 Bft) 88,60 %
10.08.2023 14:15 24,3 C 33,3 C 17,8 C 59 % 1021,5 hPa 0,0 l/m 5 min 0 min 881 W/m 16,1 km/h (3 Bft) 85,09 %
10.08.2023 14:20 24,4 C 32,8 C 18,3 C 59 % 1021,4 hPa 0,0 l/m 5 min 0 min 861 W/m 9,7 km/h (2 Bft) 98,25 %
10.08.2023 14:25 24,5 C 32,2 C 18,3 C 59 % 1021,4 hPa 0,0 l/m 5 min 0 min 862 W/m 12,9 km/h (3 Bft) 93,86 %
10.08.2023 14:30 24,5 C 32,8 C 18,3 C 59 % 1021,4 hPa 0,0 l/m 5 min 0 min 867 W/m 16,1 km/h (3 Bft) 97,37 %
10.08.2023 14:35 24,3 C 32,2 C 18,3 C 59 % 1021,4 hPa 0,0 l/m 5 min 0 min 876 W/m 16,1 km/h (3 Bft) 95,61 %
10.08.2023 14:40 24,3 C 32,2 C 18,3 C 60 % 1021,3 hPa 0,0 l/m 5 min 0 min 888 W/m 9,7 km/h (2 Bft) 96,49 %
10.08.2023 14:45 24,6 C 32,8 C 18,9 C 58 % 1021,3 hPa 0,0 l/m 5 min 0 min 879 W/m 12,9 km/h (3 Bft) 98,25 %
10.08.2023 14:50 24,8 C 32,8 C 18,9 C 59 % 1021,3 hPa 0,0 l/m 5 min 0 min 858 W/m 6,4 km/h (2 Bft) 99,12 %
10.08.2023 14:55 25,0 C 33,9 C 18,9 C 58 % 1021,3 hPa 0,0 l/m 5 min 0 min 873 W/m 6,4 km/h (2 Bft) 99,12 %
10.08.2023 15:00 25,1 C 31,1 C 18,9 C 58 % 1021,3 hPa 0,0 l/m 5 min 0 min 896 W/m 6,4 km/h (2 Bft) 100,00 %
10.08.2023 15:05 25,2 C 33,3 C 19,4 C 58 % 1021,3 hPa 0,0 l/m 5 min 0 min 901 W/m 12,9 km/h (3 Bft) 83,33 %
10.08.2023 15:10 25,5 C 33,3 C 19,4 C 57 % 1021,3 hPa 0,0 l/m 5 min 0 min 898 W/m 6,4 km/h (2 Bft) 23,68 %
10.08.2023 15:15 25,7 C 30,6 C 19,4 C 58 % 1021,3 hPa 0,0 l/m 5 min 0 min 571 W/m 12,9 km/h (3 Bft) 81,58 %
10.08.2023 15:20 25,7 C 26,7 C 19,4 C 57 % 1021,4 hPa 0,0 l/m 0 min 0 min 226 W/m 6,4 km/h (2 Bft) 100,00 %
10.08.2023 15:25 25,6 C 25,6 C 18,9 C 58 % 1021,4 hPa 0,0 l/m 0 min 0 min 213 W/m 6,4 km/h (2 Bft) 100,00 %
10.08.2023 15:30 25,2 C 23,9 C 18,9 C 58 % 1021,3 hPa 0,0 l/m 0 min 0 min 193 W/m 6,4 km/h (2 Bft) 100,00 %
10.08.2023 15:35 24,9 C 23,9 C 18,9 C 58 % 1021,5 hPa 0,0 l/m 0 min 0 min 227 W/m 6,4 km/h (2 Bft) 100,00 %
10.08.2023 15:40 24,8 C 25,0 C 18,9 C 59 % 1021,5 hPa 0,0 l/m 0 min 0 min 279 W/m 6,4 km/h (2 Bft) 100,00 %
10.08.2023 16:10 25,3 C 31,1 C 20,0 C 58 % 1021,2 hPa 0,0 l/m 5 min 0 min 837 W/m 9,7 km/h (2 Bft) 100,00 %
10.08.2023 16:12 25,4 C 30,6 C 20,0 C 58 % 1021,2 hPa 0,0 l/m 2 min 0 min 808 W/m 6,4 km/h (2 Bft) 100,00 %
10.08.2023 16:14 25,6 C 29,4 C 20,0 C 59 % 1021,2 hPa 0,0 l/m 2 min 0 min 800 W/m 12,9 km/h (3 Bft) 100,00 %
10.08.2023 16:16 25,7 C 28,3 C 20,0 C 59 % 1021,2 hPa 0,0 l/m 2 min 0 min 792 W/m 9,7 km/h (2 Bft) 97,87 %
10.08.2023 16:18 25,8 C 27,8 C 20,0 C 58 % 1021,2 hPa 0,0 l/m 2 min 0 min 783 W/m 9,7 km/h (2 Bft) 97,87 %
10.08.2023 16:20 25,9 C 27,2 C 20,0 C 57 % 1021,2 hPa 0,0 l/m 2 min 0 min 770 W/m 9,7 km/h (2 Bft) 97,87 %
10.08.2023 16:22 25,8 C 27,2 C 20,0 C 57 % 1021,2 hPa 0,0 l/m 2 min 0 min 770 W/m 3,2 km/h (1 Bft) 95,74 %
10.08.2023 16:24 25,9 C 28,3 C 20,0 C 58 % 1021,2 hPa 0,0 l/m 2 min 0 min 742 W/m 3,2 km/h (1 Bft) 97,87 %
10.08.2023 16:26 25,9 C 28,9 C 20,0 C 58 % 1021,2 hPa 0,0 l/m 2 min 0 min 730 W/m 6,4 km/h (2 Bft) 100,00 %
10.08.2023 16:28 25,9 C 28,3 C 20,0 C 57 % 1021,1 hPa 0,0 l/m 2 min 0 min 730 W/m 3,2 km/h (1 Bft) 97,87 %
10.08.2023 16:30 26,0 C 27,2 C 20,0 C 57 % 1021,1 hPa 0,0 l/m 2 min 0 min 733 W/m 9,7 km/h (2 Bft) 100,00 %
10.08.2023 16:32 26,0 C 27,2 C 20,0 C 57 % 1021,1 hPa 0,0 l/m 2 min 0 min 723 W/m 6,4 km/h (2 Bft) 100,00 %
10.08.2023 16:34 26,1 C 28,3 C 20,0 C 57 % 1021,1 hPa 0,0 l/m 2 min 0 min 707 W/m 6,4 km/h (2 Bft) 97,87 %
10.08.2023 16:36 26,1 C 27,8 C 20,0 C 57 % 1021,2 hPa 0,0 l/m 2 min 0 min 700 W/m 9,7 km/h (2 Bft) 100,00 %
10.08.2023 16:38 26,1 C 27,2 C 19,4 C 56 % 1021,2 hPa 0,0 l/m 2 min 0 min 693 W/m 6,4 km/h (2 Bft) 100,00 %
10.08.2023 16:40 25,9 C 28,3 C 19,4 C 56 % 1021,1 hPa 0,0 l/m 2 min 0 min 687 W/m 6,4 km/h (2 Bft) 100,00 %
10.08.2023 16:42 25,8 C 29,4 C 19,4 C 56 % 1021,1 hPa 0,0 l/m 2 min 0 min 673 W/m 6,4 km/h (2 Bft) 100,00 %
10.08.2023 16:44 25,8 C 30,0 C 19,4 C 57 % 1021,1 hPa 0,0 l/m 2 min 0 min 670 W/m 12,9 km/h (3 Bft) 97,87 %
10.08.2023 16:46 25,8 C 30,0 C 20,0 C 57 % 1021,1 hPa 0,0 l/m 2 min 0 min 665 W/m 9,7 km/h (2 Bft) 100,00 %
10.08.2023 16:48 25,8 C 30,0 C 20,0 C 56 % 1021,1 hPa 0,0 l/m 2 min 0 min 661 W/m 6,4 km/h (2 Bft) 100,00 %
10.08.2023 16:50 25,8 C 29,4 C 19,4 C 57 % 1021,1 hPa 0,0 l/m 2 min 0 min 653 W/m 3,2 km/h (1 Bft) 97,87 %
10.08.2023 16:52 25,9 C 29,4 C 19,4 C 57 % 1021,1 hPa 0,0 l/m 2 min 0 min 644 W/m 6,4 km/h (2 Bft) 95,65 %
10.08.2023 16:54 25,9 C 28,9 C 20,0 C 56 % 1021,1 hPa 0,0 l/m 2 min 0 min 634 W/m 12,9 km/h (3 Bft) 100,00 %
10.08.2023 16:56 25,9 C 28,3 C 20,0 C 56 % 1021,1 hPa 0,0 l/m 2 min 0 min 622 W/m 9,7 km/h (2 Bft) 95,74 %
10.08.2023 16:58 25,9 C 28,9 C 20,0 C 57 % 1021,1 hPa 0,0 l/m 2 min 0 min 609 W/m 12,9 km/h (3 Bft) 95,74 %
10.08.2023 17:00 25,9 C 27,8 C 20,0 C 55 % 1021,1 hPa 0,0 l/m 2 min 0 min 601 W/m 9,7 km/h (2 Bft) 95,74 %
10.08.2023 17:02 25,9 C 28,9 C 20,0 C 56 % 1021,1 hPa 0,0 l/m 2 min 0 min 597 W/m 3,2 km/h (1 Bft) 93,62 %
10.08.2023 17:04 25,9 C 29,4 C 20,0 C 55 % 1021,1 hPa 0,0 l/m 2 min 0 min 604 W/m 16,1 km/h (3 Bft) 95,12 %
10.08.2023 17:06 25,9 C 29,4 C 20,0 C 54 % 1021,1 hPa 0,0 l/m 2 min 0 min 601 W/m 9,7 km/h (2 Bft) 95,38 %
10.08.2023 17:08 26,0 C 30,0 C 20,0 C 54 % 1021,1 hPa 0,0 l/m 2 min 0 min 597 W/m 9,7 km/h (2 Bft) 94,29 %
10.08.2023 17:10 26,0 C 30,0 C 20,6 C 54 % 1021,0 hPa 0,0 l/m 2 min 0 min 590 W/m 6,4 km/h (2 Bft) 93,62 %
10.08.2023 17:12 26,1 C 30,0 C 20,0 C 54 % 1021,0 hPa 0,0 l/m 2 min 0 min 582 W/m 9,7 km/h (2 Bft) 95,74 %
10.08.2023 17:14 26,1 C 30,6 C 20,0 C 54 % 1021,1 hPa 0,0 l/m 2 min 0 min 572 W/m 9,7 km/h (2 Bft) 95,74 %
10.08.2023 17:16 26,1 C 30,6 C 20,6 C 55 % 1021,0 hPa 0,0 l/m 2 min 0 min 567 W/m 6,4 km/h (2 Bft) 95,65 %
10.08.2023 17:18 26,1 C 30,6 C 20,6 C 55 % 1021,0 hPa 0,0 l/m 2 min 0 min 565 W/m 3,2 km/h (1 Bft) 95,74 %
10.08.2023 17:20 26,2 C 30,6 C 20,6 C 54 % 1021,0 hPa 0,0 l/m 2 min 0 min 562 W/m 9,7 km/h (2 Bft) 95,74 %
10.08.2023 17:22 26,2 C 31,1 C 20,6 C 54 % 1020,9 hPa 0,0 l/m 2 min 0 min 558 W/m 9,7 km/h (2 Bft) 93,62 %
10.08.2023 17:24 26,3 C 31,1 C 20,6 C 54 % 1020,9 hPa 0,0 l/m 2 min 0 min 553 W/m 6,4 km/h (2 Bft) 95,74 %
10.08.2023 17:26 26,1 C 30,6 C 20,0 C 53 % 1020,8 hPa 0,0 l/m 2 min 0 min 547 W/m 6,4 km/h (2 Bft) 95,74 %
10.08.2023 17:28 26,1 C 31,1 C 20,0 C 55 % 1020,8 hPa 0,0 l/m 2 min 0 min 540 W/m 3,2 km/h (1 Bft) 93,62 %
10.08.2023 17:30 26,2 C 31,1 C 20,6 C 55 % 1020,8 hPa 0,0 l/m 2 min 0 min 533 W/m 6,4 km/h (2 Bft) 95,65 %
10.08.2023 17:32 26,2 C 30,6 C 20,6 C 54 % 1020,8 hPa 0,0 l/m 2 min 0 min 527 W/m 6,4 km/h (2 Bft) 95,74 %
10.08.2023 17:34 26,3 C 31,1 C 20,6 C 54 % 1020,8 hPa 0,0 l/m 2 min 0 min 523 W/m 3,2 km/h (1 Bft) 97,87 %
10.08.2023 17:36 26,4 C 31,1 C 21,1 C 56 % 1020,8 hPa 0,0 l/m 2 min 0 min 520 W/m 6,4 km/h (2 Bft) 95,74 %
10.08.2023 17:38 26,4 C 31,1 C 20,6 C 56 % 1020,8 hPa 0,0 l/m 2 min 0 min 514 W/m 6,4 km/h (2 Bft) 97,87 %
10.08.2023 17:40 26,5 C 31,7 C 21,1 C 56 % 1020,8 hPa 0,0 l/m 2 min 0 min 509 W/m 6,4 km/h (2 Bft) 95,74 %
10.08.2023 17:42 26,6 C 31,7 C 21,7 C 56 % 1020,8 hPa 0,0 l/m 2 min 0 min 504 W/m 6,4 km/h (2 Bft) 95,74 %
10.08.2023 17:44 26,7 C 31,1 C 21,1 C 57 % 1020,8 hPa 0,0 l/m 2 min 0 min 498 W/m 6,4 km/h (2 Bft) 95,65 %
10.08.2023 17:46 26,7 C 31,1 C 21,1 C 55 % 1020,8 hPa 0,0 l/m 2 min 0 min 493 W/m 6,4 km/h (2 Bft) 95,74 %
10.08.2023 17:48 26,6 C 31,7 C 21,7 C 55 % 1020,9 hPa 0,0 l/m 2 min 0 min 488 W/m 6,4 km/h (2 Bft) 95,74 %
10.08.2023 17:50 26,6 C 31,7 C 21,7 C 56 % 1020,8 hPa 0,0 l/m 2 min 0 min 483 W/m 6,4 km/h (2 Bft) 97,87 %
10.08.2023 17:52 26,6 C 31,1 C 21,1 C 55 % 1020,8 hPa 0,0 l/m 2 min 0 min 476 W/m 6,4 km/h (2 Bft) 97,87 %
10.08.2023 17:54 26,6 C 30,6 C 21,1 C 55 % 1020,8 hPa 0,0 l/m 2 min 0 min 471 W/m 9,7 km/h (2 Bft) 97,87 %
10.08.2023 17:56 26,5 C 30,6 C 20,6 C 56 % 1020,8 hPa 0,0 l/m 2 min 0 min 466 W/m 3,2 km/h (1 Bft) 97,83 %
10.08.2023 17:58 26,6 C 30,6 C 21,1 C 56 % 1020,8 hPa 0,0 l/m 2 min 0 min 461 W/m 0,0 km/h (0 Bft) 97,87 %
10.08.2023 18:00 26,7 C 31,1 C 21,1 C 57 % 1020,7 hPa 0,0 l/m 2 min 0 min 455 W/m 0,0 km/h (0 Bft) 97,87 %
10.08.2023 18:02 26,7 C 30,6 C 20,6 C 54 % 1020,7 hPa 0,0 l/m 2 min 0 min 448 W/m 0,0 km/h (0 Bft) 97,87 %
10.08.2023 18:04 26,7 C 30,6 C 21,1 C 55 % 1020,7 hPa 0,0 l/m 2 min 0 min 442 W/m 0,0 km/h (0 Bft) 100,00 %
10.08.2023 18:08 26,8 C 31,1 C 21,7 C 54 % 1020,7 hPa 0,0 l/m 4 min 0 min 435 W/m 12,9 km/h (3 Bft) 97,03 %
10.08.2023 18:10 26,8 C 31,1 C 21,7 C 55 % 1020,7 hPa 0,0 l/m 2 min 0 min 428 W/m 6,4 km/h (2 Bft) 100,00 %
10.08.2023 18:12 26,8 C 31,1 C 21,7 C 54 % 1020,8 hPa 0,0 l/m 2 min 0 min 424 W/m 9,7 km/h (2 Bft) 100,00 %
10.08.2023 18:14 26,8 C 31,1 C 21,7 C 54 % 1020,8 hPa 0,0 l/m 2 min 0 min 420 W/m 9,7 km/h (2 Bft) 100,00 %
10.08.2023 18:16 26,8 C 31,1 C 21,7 C 54 % 1020,7 hPa 0,0 l/m 2 min 0 min 415 W/m 9,7 km/h (2 Bft) 100,00 %
10.08.2023 18:18 26,8 C 30,6 C 21,1 C 54 % 1020,8 hPa 0,0 l/m 2 min 0 min 408 W/m 9,7 km/h (2 Bft) 100,00 %
10.08.2023 18:20 26,8 C 31,1 C 21,7 C 55 % 1020,7 hPa 0,0 l/m 2 min 0 min 401 W/m 6,4 km/h (2 Bft) 100,00 %
10.08.2023 18:22 26,8 C 31,1 C 21,1 C 55 % 1020,8 hPa 0,0 l/m 2 min 0 min 396 W/m 3,2 km/h (1 Bft) 100,00 %
10.08.2023 18:24 26,8 C 31,1 C 20,6 C 54 % 1020,7 hPa 0,0 l/m 2 min 0 min 390 W/m 6,4 km/h (2 Bft) 100,00 %
10.08.2023 18:26 26,8 C 31,7 C 21,1 C 56 % 1020,7 hPa 0,0 l/m 2 min 0 min 388 W/m 3,2 km/h (1 Bft) 100,00 %
10.08.2023 18:28 26,8 C 31,1 C 20,6 C 55 % 1020,6 hPa 0,0 l/m 2 min 0 min 384 W/m 6,4 km/h (2 Bft) 100,00 %
10.08.2023 18:30 26,8 C 31,1 C 21,1 C 55 % 1020,7 hPa 0,0 l/m 2 min 0 min 379 W/m 6,4 km/h (2 Bft) 100,00 %
10.08.2023 18:32 26,8 C 31,1 C 21,1 C 55 % 1020,7 hPa 0,0 l/m 2 min 0 min 372 W/m 6,4 km/h (2 Bft) 100,00 %
10.08.2023 18:34 26,7 C 30,6 C 20,6 C 54 % 1020,6 hPa 0,0 l/m 2 min 0 min 364 W/m 6,4 km/h (2 Bft) 100,00 %
10.08.2023 18:36 26,6 C 30,0 C 20,6 C 54 % 1020,6 hPa 0,0 l/m 2 min 0 min 357 W/m 6,4 km/h (2 Bft) 100,00 %
10.08.2023 18:38 26,5 C 30,0 C 20,6 C 56 % 1020,6 hPa 0,0 l/m 2 min 0 min 352 W/m 3,2 km/h (1 Bft) 100,00 %
10.08.2023 18:40 26,4 C 30,6 C 20,6 C 55 % 1020,7 hPa 0,0 l/m 2 min 0 min 344 W/m 3,2 km/h (1 Bft) 100,00 %
10.08.2023 18:42 26,5 C 31,1 C 20,6 C 56 % 1020,7 hPa 0,0 l/m 2 min 0 min 338 W/m 3,2 km/h (1 Bft) 97,87 %
10.08.2023 18:44 26,4 C 31,1 C 20,0 C 56 % 1020,7 hPa 0,0 l/m 2 min 0 min 329 W/m 3,2 km/h (1 Bft) 100,00 %
10.08.2023 18:46 26,4 C 30,6 C 20,0 C 56 % 1020,8 hPa 0,0 l/m 2 min 0 min 322 W/m 3,2 km/h (1 Bft) 100,00 %
10.08.2023 18:48 26,4 C 30,6 C 20,0 C 56 % 1020,8 hPa 0,0 l/m 2 min 0 min 315 W/m 3,2 km/h (1 Bft) 100,00 %
10.08.2023 18:50 26,3 C 30,6 C 20,0 C 56 % 1020,8 hPa 0,0 l/m 2 min 0 min 309 W/m 6,4 km/h (2 Bft) 100,00 %
10.08.2023 18:52 26,1 C 30,0 C 20,0 C 56 % 1020,8 hPa 0,0 l/m 2 min 0 min 303 W/m 6,4 km/h (2 Bft) 97,87 %
10.08.2023 18:54 26,1 C 30,6 C 19,4 C 58 % 1020,8 hPa 0,0 l/m 2 min 0 min 295 W/m 3,2 km/h (1 Bft) 100,00 %
10.08.2023 18:56 25,9 C 30,6 C 19,4 C 57 % 1020,9 hPa 0,0 l/m 2 min 0 min 287 W/m 6,4 km/h (2 Bft) 97,87 %
10.08.2023 18:58 25,9 C 29,4 C 19,4 C 57 % 1020,9 hPa 0,0 l/m 2 min 0 min 280 W/m 6,4 km/h (2 Bft) 100,00 %
10.08.2023 19:00 25,8 C 27,8 C 19,4 C 58 % 1020,9 hPa 0,0 l/m 2 min 0 min 271 W/m 3,2 km/h (1 Bft) 100,00 %
10.08.2023 19:02 25,7 C 26,1 C 19,4 C 58 % 1020,9 hPa 0,0 l/m 2 min 0 min 264 W/m 12,9 km/h (3 Bft) 100,00 %
10.08.2023 19:04 25,6 C 25,0 C 19,4 C 58 % 1020,9 hPa 0,0 l/m 2 min 0 min 257 W/m 6,4 km/h (2 Bft) 100,00 %
10.08.2023 19:06 25,4 C 24,4 C 19,4 C 57 % 1020,9 hPa 0,0 l/m 2 min 0 min 250 W/m 3,2 km/h (1 Bft) 97,87 %
10.08.2023 19:08 25,3 C 24,4 C 19,4 C 57 % 1020,9 hPa 0,0 l/m 2 min 0 min 241 W/m 3,2 km/h (1 Bft) 100,00 %
10.08.2023 19:10 25,2 C 24,4 C 18,9 C 58 % 1021,0 hPa 0,0 l/m 2 min 0 min 236 W/m 6,4 km/h (2 Bft) 95,74 %
10.08.2023 19:12 25,1 C 24,4 C 18,9 C 59 % 1021,0 hPa 0,0 l/m 2 min 0 min 228 W/m 3,2 km/h (1 Bft) 97,87 %
10.08.2023 19:14 24,8 C 23,9 C 18,9 C 59 % 1020,9 hPa 0,0 l/m 2 min 0 min 221 W/m 3,2 km/h (1 Bft) 100,00 %
10.08.2023 19:16 24,7 C 23,9 C 18,9 C 59 % 1020,9 hPa 0,0 l/m 2 min 0 min 172 W/m 6,4 km/h (2 Bft) 100,00 %
10.08.2023 19:18 24,6 C 23,9 C 18,9 C 60 % 1020,9 hPa 0,0 l/m 0 min 0 min 79 W/m 3,2 km/h (1 Bft) 97,87 %
10.08.2023 19:20 24,4 C 23,9 C 18,9 C 61 % 1020,9 hPa 0,0 l/m 0 min 0 min 50 W/m 3,2 km/h (1 Bft) 100,00 %
10.08.2023 19:22 24,3 C 23,3 C 18,9 C 61 % 1020,9 hPa 0,0 l/m 0 min 0 min 48 W/m 3,2 km/h (1 Bft) 100,00 %
10.08.2023 19:24 24,3 C 23,3 C 18,9 C 62 % 1020,8 hPa 0,0 l/m 0 min 0 min 47 W/m 3,2 km/h (1 Bft) 100,00 %
10.08.2023 19:26 24,2 C 23,3 C 18,9 C 62 % 1020,8 hPa 0,0 l/m 0 min 0 min 46 W/m 6,4 km/h (2 Bft) 100,00 %
10.08.2023 19:28 24,2 C 23,3 C 18,9 C 61 % 1020,8 hPa 0,0 l/m 0 min 0 min 44 W/m 9,7 km/h (2 Bft) 100,00 %
10.08.2023 19:30 24,1 C 23,3 C 18,9 C 61 % 1020,8 hPa 0,0 l/m 0 min 0 min 42 W/m 3,2 km/h (1 Bft) 95,74 %
10.08.2023 19:32 24,1 C 23,3 C 18,3 C 61 % 1020,8 hPa 0,0 l/m 0 min 0 min 42 W/m 6,4 km/h (2 Bft) 97,87 %
10.08.2023 19:34 24,1 C 23,3 C 18,3 C 63 % 1020,8 hPa 0,0 l/m 0 min 0 min 40 W/m 3,2 km/h (1 Bft) 95,74 %
10.08.2023 19:36 24,0 C 22,8 C 18,3 C 62 % 1020,8 hPa 0,0 l/m 0 min 0 min 40 W/m 3,2 km/h (1 Bft) 95,74 %
10.08.2023 19:38 23,9 C 22,8 C 18,3 C 63 % 1020,8 hPa 0,0 l/m 0 min 0 min 39 W/m 6,4 km/h (2 Bft) 91,49 %
10.08.2023 19:40 23,8 C 22,8 C 18,3 C 63 % 1020,9 hPa 0,0 l/m 0 min 0 min 39 W/m 3,2 km/h (1 Bft) 95,65 %
10.08.2023 19:42 23,7 C 22,8 C 18,3 C 63 % 1020,8 hPa 0,0 l/m 0 min 0 min 37 W/m 3,2 km/h (1 Bft) 95,74 %
10.08.2023 19:44 23,7 C 22,8 C 18,3 C 64 % 1020,8 hPa 0,0 l/m 0 min 0 min 37 W/m 0,0 km/h (0 Bft) 93,62 %
10.08.2023 19:46 23,6 C 22,8 C 18,3 C 63 % 1020,8 hPa 0,0 l/m 0 min 0 min 35 W/m 3,2 km/h (1 Bft) 95,74 %
10.08.2023 19:48 23,6 C 22,8 C 18,3 C 64 % 1020,8 hPa 0,0 l/m 0 min 0 min 35 W/m 3,2 km/h (1 Bft) 91,49 %
10.08.2023 19:50 23,6 C 22,8 C 18,3 C 64 % 1020,8 hPa 0,0 l/m 0 min 0 min 33 W/m 6,4 km/h (2 Bft) 95,74 %
10.08.2023 19:52 23,6 C 22,2 C 18,3 C 64 % 1020,8 hPa 0,0 l/m 0 min 0 min 33 W/m 3,2 km/h (1 Bft) 93,62 %
10.08.2023 19:54 23,5 C 22,2 C 17,8 C 66 % 1020,8 hPa 0,0 l/m 0 min 0 min 32 W/m 3,2 km/h (1 Bft) 95,65 %
10.08.2023 19:56 23,5 C 22,2 C 17,8 C 65 % 1020,8 hPa 0,0 l/m 0 min 0 min 32 W/m 3,2 km/h (1 Bft) 91,49 %
10.08.2023 19:58 23,4 C 22,2 C 17,8 C 65 % 1020,9 hPa 0,0 l/m 0 min 0 min 31 W/m 3,2 km/h (1 Bft) 95,74 %
10.08.2023 20:00 23,4 C 22,2 C 17,8 C 65 % 1020,8 hPa 0,0 l/m 0 min 0 min 30 W/m 3,2 km/h (1 Bft) 93,62 %
10.08.2023 20:02 23,4 C 22,2 C 17,8 C 65 % 1020,9 hPa 0,0 l/m 0 min 0 min 29 W/m 3,2 km/h (1 Bft) 91,49 %
10.08.2023 20:04 23,4 C 22,2 C 17,8 C 66 % 1020,8 hPa 0,0 l/m 0 min 0 min 27 W/m 0,0 km/h (0 Bft) 95,24 %
10.08.2023 20:06 23,3 C 22,2 C 17,8 C 65 % 1020,9 hPa 0,0 l/m 0 min 0 min 26 W/m 0,0 km/h (0 Bft) 94,23 %
10.08.2023 20:08 23,3 C 21,7 C 17,2 C 67 % 1020,8 hPa 0,0 l/m 0 min 0 min 26 W/m 3,2 km/h (1 Bft) 95,24 %
10.08.2023 20:10 23,3 C 21,7 C 17,2 C 66 % 1020,9 hPa 0,0 l/m 0 min 0 min 25 W/m 0,0 km/h (0 Bft) 95,74 %
10.08.2023 20:12 23,3 C 21,7 C 17,2 C 67 % 1020,8 hPa 0,0 l/m 0 min 0 min 24 W/m 0,0 km/h (0 Bft) 97,14 %
10.08.2023 20:14 23,3 C 21,7 C 17,2 C 67 % 1020,8 hPa 0,0 l/m 0 min 0 min 23 W/m 0,0 km/h (0 Bft) 95,74 %
10.08.2023 20:16 23,2 C 21,1 C 17,2 C 68 % 1020,8 hPa 0,0 l/m 0 min 0 min 22 W/m 0,0 km/h (0 Bft) 91,49 %
10.08.2023 20:18 23,2 C 21,1 C 17,2 C 69 % 1020,8 hPa 0,0 l/m 0 min 0 min 21 W/m 3,2 km/h (1 Bft) 97,83 %
10.08.2023 20:20 23,1 C 21,1 C 17,2 C 68 % 1020,7 hPa 0,0 l/m 0 min 0 min 20 W/m 0,0 km/h (0 Bft) 95,74 %
10.08.2023 20:22 23,1 C 21,1 C 16,7 C 68 % 1020,8 hPa 0,0 l/m 0 min 0 min 19 W/m 3,2 km/h (1 Bft) 93,62 %
10.08.2023 20:24 23,0 C 21,1 C 16,7 C 69 % 1020,8 hPa 0,0 l/m 0 min 0 min 19 W/m 0,0 km/h (0 Bft) 97,87 %
10.08.2023 20:26 22,9 C 21,1 C 16,7 C 69 % 1020,8 hPa 0,0 l/m 0 min 0 min 18 W/m 0,0 km/h (0 Bft) 97,87 %
10.08.2023 20:28 22,9 C 21,1 C 16,7 C 69 % 1020,8 hPa 0,0 l/m 0 min 0 min 18 W/m 0,0 km/h (0 Bft) 97,87 %
10.08.2023 20:30 22,9 C 21,1 C 16,7 C 70 % 1020,8 hPa 0,0 l/m 0 min 0 min 17 W/m 0,0 km/h (0 Bft) 95,74 %
10.08.2023 20:32 22,8 C 20,6 C 16,7 C 70 % 1020,7 hPa 0,0 l/m 0 min 0 min 16 W/m 0,0 km/h (0 Bft) 95,65 %
10.08.2023 20:34 22,8 C 20,6 C 16,7 C 70 % 1020,7 hPa 0,0 l/m 0 min 0 min 16 W/m 0,0 km/h (0 Bft) 97,87 %
10.08.2023 20:36 22,7 C 20,6 C 16,7 C 71 % 1020,7 hPa 0,0 l/m 0 min 0 min 14 W/m 0,0 km/h (0 Bft) 97,87 %
10.08.2023 20:38 22,7 C 20,6 C 16,7 C 72 % 1020,7 hPa 0,0 l/m 0 min 0 min 14 W/m 0,0 km/h (0 Bft) 97,87 %
10.08.2023 20:40 22,6 C 20,6 C 16,7 C 73 % 1020,7 hPa 0,0 l/m 0 min 0 min 12 W/m 0,0 km/h (0 Bft) 97,87 %
10.08.2023 20:42 22,6 C 20,0 C 16,1 C 73 % 1020,7 hPa 0,0 l/m 0 min 0 min 12 W/m 0,0 km/h (0 Bft) 97,87 %
10.08.2023 20:44 22,5 C 20,0 C 16,1 C 73 % 1020,7 hPa 0,0 l/m 0 min 0 min 12 W/m 0,0 km/h (0 Bft) 100,00 %
10.08.2023 20:46 22,4 C 20,0 C 16,1 C 73 % 1020,7 hPa 0,0 l/m 0 min 0 min 11 W/m 0,0 km/h (0 Bft) 100,00 %
10.08.2023 20:48 22,3 C 20,0 C 16,1 C 73 % 1020,7 hPa 0,0 l/m 0 min 0 min 11 W/m 3,2 km/h (1 Bft) 100,00 %
10.08.2023 20:50 22,3 C 20,0 C 16,1 C 74 % 1020,7 hPa 0,0 l/m 0 min 0 min 9 W/m 0,0 km/h (0 Bft) 100,00 %
10.08.2023 20:52 22,2 C 20,0 C 16,1 C 74 % 1020,7 hPa 0,0 l/m 0 min 0 min 9 W/m 3,2 km/h (1 Bft) 100,00 %
10.08.2023 20:54 22,1 C 20,0 C 16,1 C 74 % 1020,7 hPa 0,0 l/m 0 min 0 min 7 W/m 3,2 km/h (1 Bft) 100,00 %
10.08.2023 20:56 22,0 C 20,0 C 16,1 C 74 % 1020,7 hPa 0,0 l/m 0 min 0 min 7 W/m 3,2 km/h (1 Bft) 97,87 %
10.08.2023 20:58 21,9 C 19,4 C 16,1 C 74 % 1020,7 hPa 0,0 l/m 0 min 0 min 5 W/m 3,2 km/h (1 Bft) 100,00 %
10.08.2023 21:00 21,9 C 19,4 C 15,6 C 75 % 1020,7 hPa 0,0 l/m 0 min 0 min 5 W/m 3,2 km/h (1 Bft) 100,00 %
10.08.2023 21:02 21,7 C 19,4 C 15,6 C 75 % 1020,7 hPa 0,0 l/m 0 min 0 min 5 W/m 0,0 km/h (0 Bft) 97,87 %
10.08.2023 21:04 21,7 C 19,4 C 15,6 C 75 % 1020,7 hPa 0,0 l/m 0 min 0 min 3 W/m 0,0 km/h (0 Bft) 100,00 %
10.08.2023 21:06 21,6 C 19,4 C 15,6 C 74 % 1020,8 hPa 0,0 l/m 0 min 0 min 0 W/m 0,0 km/h (0 Bft) 98,28 %
10.08.2023 21:08 21,6 C 19,4 C 15,6 C 74 % 1020,8 hPa 0,0 l/m 0 min 0 min 0 W/m 0,0 km/h (0 Bft) 100,00 %
10.08.2023 21:10 21,4 C 19,4 C 15,6 C 74 % 1020,8 hPa 0,0 l/m 0 min 0 min 0 W/m 0,0 km/h (0 Bft) 100,00 %
10.08.2023 21:12 21,4 C 19,4 C 15,6 C 75 % 1020,9 hPa 0,0 l/m 0 min 0 min 0 W/m 3,2 km/h (1 Bft) 100,00 %
10.08.2023 21:14 21,4 C 19,4 C 15,6 C 75 % 1020,8 hPa 0,0 l/m 0 min 0 min 0 W/m 3,2 km/h (1 Bft) 100,00 %
10.08.2023 21:16 21,3 C 19,4 C 15,6 C 75 % 1020,8 hPa 0,0 l/m 0 min 0 min 0 W/m 3,2 km/h (1 Bft) 97,87 %
10.08.2023 21:18 21,3 C 19,4 C 15,6 C 76 % 1020,8 hPa 0,0 l/m 0 min 0 min 0 W/m 6,4 km/h (2 Bft) 100,00 %
10.08.2023 21:20 21,2 C 19,4 C 15,6 C 75 % 1020,8 hPa 0,0 l/m 0 min 0 min 0 W/m 3,2 km/h (1 Bft) 100,00 %
10.08.2023 21:22 21,2 C 19,4 C 15,6 C 75 % 1020,8 hPa 0,0 l/m 0 min 0 min 0 W/m 0,0 km/h (0 Bft) 95,74 %
10.08.2023 21:24 21,1 C 18,9 C 15,6 C 75 % 1020,8 hPa 0,0 l/m 0 min 0 min 0 W/m 0,0 km/h (0 Bft) 100,00 %
10.08.2023 21:26 21,1 C 18,9 C 15,6 C 76 % 1020,9 hPa 0,0 l/m 0 min 0 min 0 W/m 0,0 km/h (0 Bft) 100,00 %
10.08.2023 21:28 21,1 C 18,9 C 15,6 C 76 % 1020,9 hPa 0,0 l/m 0 min 0 min 0 W/m 0,0 km/h (0 Bft) 97,87 %
10.08.2023 21:30 21,0 C 18,9 C 15,0 C 77 % 1020,9 hPa 0,0 l/m 0 min 0 min 0 W/m 0,0 km/h (0 Bft) 97,87 %
10.08.2023 21:32 20,9 C 18,9 C 15,0 C 77 % 1020,9 hPa 0,0 l/m 0 min 0 min 0 W/m 0,0 km/h (0 Bft) 97,87 %
10.08.2023 21:34 20,9 C 18,9 C 15,0 C 77 % 1021,0 hPa 0,0 l/m 0 min 0 min 0 W/m 0,0 km/h (0 Bft) 97,87 %
10.08.2023 21:36 20,8 C 18,9 C 15,0 C 78 % 1021,0 hPa 0,0 l/m 0 min 0 min 0 W/m 0,0 km/h (0 Bft) 97,83 %
10.08.2023 21:38 20,7 C 18,3 C 15,0 C 78 % 1021,1 hPa 0,0 l/m 0 min 0 min 0 W/m 0,0 km/h (0 Bft) 95,74 %
10.08.2023 21:40 20,7 C 18,3 C 15,0 C 78 % 1021,1 hPa 0,0 l/m 0 min 0 min 0 W/m 0,0 km/h (0 Bft) 97,87 %
10.08.2023 21:42 20,6 C 18,3 C 15,0 C 78 % 1021,1 hPa 0,0 l/m 0 min 0 min 0 W/m 0,0 km/h (0 Bft) 97,87 %
10.08.2023 21:44 20,6 C 18,3 C 15,0 C 78 % 1021,1 hPa 0,0 l/m 0 min 0 min 0 W/m 0,0 km/h (0 Bft) 95,74 %
10.08.2023 21:46 20,5 C 18,3 C 15,0 C 79 % 1021,1 hPa 0,0 l/m 0 min 0 min 0 W/m 0,0 km/h (0 Bft) 97,87 %
10.08.2023 21:48 20,4 C 18,3 C 14,4 C 80 % 1021,2 hPa 0,0 l/m 0 min 0 min 0 W/m 0,0 km/h (0 Bft) 97,87 %
10.08.2023 21:50 20,4 C 18,3 C 14,4 C 80 % 1021,2 hPa 0,0 l/m 0 min 0 min 0 W/m 0,0 km/h (0 Bft) 97,83 %
10.08.2023 21:52 20,3 C 18,3 C 14,4 C 80 % 1021,2 hPa 0,0 l/m 0 min 0 min 0 W/m 0,0 km/h (0 Bft) 97,87 %
10.08.2023 21:54 20,2 C 17,8 C 14,4 C 80 % 1021,2 hPa 0,0 l/m 0 min 0 min 0 W/m 0,0 km/h (0 Bft) 97,87 %
10.08.2023 21:56 20,2 C 17,8 C 14,4 C 81 % 1021,3 hPa 0,0 l/m 0 min 0 min 0 W/m 0,0 km/h (0 Bft) 100,00 %
10.08.2023 21:58 20,1 C 17,8 C 14,4 C 81 % 1021,2 hPa 0,0 l/m 0 min 0 min 0 W/m 0,0 km/h (0 Bft) 100,00 %
10.08.2023 22:00 20,1 C 17,8 C 14,4 C 81 % 1021,2 hPa 0,0 l/m 0 min 0 min 0 W/m 0,0 km/h (0 Bft) 100,00 %
10.08.2023 22:02 20,0 C 17,8 C 14,4 C 81 % 1021,2 hPa 0,0 l/m 0 min 0 min 0 W/m 0,0 km/h (0 Bft) 100,00 %
10.08.2023 22:04 19,9 C 17,8 C 14,4 C 81 % 1021,3 hPa 0,0 l/m 0 min 0 min 0 W/m 0,0 km/h (0 Bft) 100,00 %
10.08.2023 22:06 19,9 C 17,8 C 14,4 C 82 % 1021,2 hPa 0,0 l/m 0 min 0 min 0 W/m 0,0 km/h (0 Bft) 100,00 %
10.08.2023 22:08 19,8 C 17,8 C 13,9 C 82 % 1021,1 hPa 0,0 l/m 0 min 0 min 0 W/m 3,2 km/h (1 Bft) 100,00 %
10.08.2023 22:10 19,8 C 17,8 C 13,9 C 82 % 1021,1 hPa 0,0 l/m 0 min 0 min 0 W/m 3,2 km/h (1 Bft) 100,00 %
10.08.2023 22:12 19,7 C 17,8 C 13,9 C 82 % 1021,2 hPa 0,0 l/m 0 min 0 min 0 W/m 0,0 km/h (0 Bft) 97,87 %
10.08.2023 22:14 19,7 C 17,8 C 13,9 C 82 % 1021,1 hPa 0,0 l/m 0 min 0 min 0 W/m 0,0 km/h (0 Bft) 95,74 %
10.08.2023 22:16 19,6 C 17,8 C 13,9 C 82 % 1021,1 hPa 0,0 l/m 0 min 0 min 0 W/m 0,0 km/h (0 Bft) 97,83 %
10.08.2023 22:18 19,6 C 17,8 C 13,9 C 82 % 1021,1 hPa 0,0 l/m 0 min 0 min 0 W/m 0,0 km/h (0 Bft) 100,00 %
10.08.2023 22:20 19,5 C 17,8 C 13,9 C 82 % 1021,2 hPa 0,0 l/m 0 min 0 min 0 W/m 0,0 km/h (0 Bft) 100,00 %
10.08.2023 22:22 19,4 C 17,8 C 13,9 C 81 % 1021,2 hPa 0,0 l/m 0 min 0 min 0 W/m 0,0 km/h (0 Bft) 100,00 %
10.08.2023 22:24 19,4 C 17,8 C 13,9 C 82 % 1021,3 hPa 0,0 l/m 0 min 0 min 0 W/m 0,0 km/h (0 Bft) 100,00 %
10.08.2023 22:26 19,3 C 17,8 C 13,9 C 82 % 1021,3 hPa 0,0 l/m 0 min 0 min 0 W/m 0,0 km/h (0 Bft) 93,62 %
10.08.2023 22:28 19,3 C 17,8 C 13,9 C 82 % 1021,2 hPa 0,0 l/m 0 min 0 min 0 W/m 0,0 km/h (0 Bft) 95,74 %
10.08.2023 22:30 19,3 C 17,2 C 13,9 C 83 % 1021,2 hPa 0,0 l/m 0 min 0 min 0 W/m 0,0 km/h (0 Bft) 93,48 %
10.08.2023 22:32 19,2 C 17,2 C 13,9 C 83 % 1021,3 hPa 0,0 l/m 0 min 0 min 0 W/m 0,0 km/h (0 Bft) 93,62 %
10.08.2023 22:34 19,2 C 17,2 C 13,9 C 83 % 1021,2 hPa 0,0 l/m 0 min 0 min 0 W/m 0,0 km/h (0 Bft) 95,74 %
10.08.2023 22:36 19,2 C 17,2 C 13,9 C 83 % 1021,1 hPa 0,0 l/m 0 min 0 min 0 W/m 0,0 km/h (0 Bft) 95,74 %
10.08.2023 22:38 19,1 C 17,2 C 13,9 C 83 % 1021,2 hPa 0,0 l/m 0 min 0 min 0 W/m 0,0 km/h (0 Bft) 95,74 %
10.08.2023 22:40 19,1 C 17,2 C 13,9 C 83 % 1021,2 hPa 0,0 l/m 0 min 0 min 0 W/m 0,0 km/h (0 Bft) 93,62 %
10.08.2023 22:42 19,0 C 17,2 C 13,9 C 83 % 1021,2 hPa 0,0 l/m 0 min 0 min 0 W/m 0,0 km/h (0 Bft) 93,48 %
10.08.2023 22:44 18,9 C 17,2 C 13,9 C 84 % 1021,3 hPa 0,0 l/m 0 min 0 min 0 W/m 0,0 km/h (0 Bft) 95,74 %
10.08.2023 22:46 18,9 C 17,2 C 13,3 C 84 % 1021,3 hPa 0,0 l/m 0 min 0 min 0 W/m 0,0 km/h (0 Bft) 95,74 %
10.08.2023 22:48 18,8 C 17,2 C 13,3 C 84 % 1021,3 hPa 0,0 l/m 0 min 0 min 0 W/m 0,0 km/h (0 Bft) 95,74 %
10.08.2023 22:50 18,8 C 17,2 C 13,9 C 84 % 1021,2 hPa 0,0 l/m 0 min 0 min 0 W/m 0,0 km/h (0 Bft) 95,74 %
10.08.2023 22:52 18,8 C 17,2 C 13,3 C 84 % 1021,3 hPa 0,0 l/m 0 min 0 min 0 W/m 0,0 km/h (0 Bft) 93,62 %
10.08.2023 22:54 18,7 C 17,2 C 13,3 C 84 % 1021,3 hPa 0,0 l/m 0 min 0 min 0 W/m 0,0 km/h (0 Bft) 95,65 %
10.08.2023 22:56 18,7 C 17,2 C 13,3 C 84 % 1021,3 hPa 0,0 l/m 0 min 0 min 0 W/m 0,0 km/h (0 Bft) 95,74 %
10.08.2023 22:58 18,7 C 17,2 C 13,3 C 84 % 1021,3 hPa 0,0 l/m 0 min 0 min 0 W/m 0,0 km/h (0 Bft) 93,62 %
10.08.2023 23:00 18,6 C 16,7 C 13,3 C 85 % 1021,3 hPa 0,0 l/m 0 min 0 min 0 W/m 0,0 km/h (0 Bft) 95,74 %
10.08.2023 23:02 18,6 C 16,7 C 13,3 C 85 % 1021,4 hPa 0,0 l/m 0 min 0 min 0 W/m 0,0 km/h (0 Bft) 95,74 %
10.08.2023 23:04 18,6 C 16,7 C 13,3 C 85 % 1021,4 hPa 0,0 l/m 0 min 0 min 0 W/m 0,0 km/h (0 Bft) 95,92 %
10.08.2023 23:06 18,6 C 16,7 C 13,3 C 85 % 1021,4 hPa 0,0 l/m 0 min 0 min 0 W/m 0,0 km/h (0 Bft) 98,28 %
10.08.2023 23:08 18,5 C 16,7 C 13,3 C 85 % 1021,4 hPa 0,0 l/m 0 min 0 min 0 W/m 0,0 km/h (0 Bft) 97,14 %
10.08.2023 23:10 18,4 C 16,7 C 13,3 C 85 % 1021,4 hPa 0,0 l/m 0 min 0 min 0 W/m 0,0 km/h (0 Bft) 97,87 %
10.08.2023 23:12 18,4 C 16,7 C 13,3 C 85 % 1021,4 hPa 0,0 l/m 0 min 0 min 0 W/m 0,0 km/h (0 Bft) 95,74 %
10.08.2023 23:14 18,4 C 16,7 C 13,3 C 85 % 1021,4 hPa 0,0 l/m 0 min 0 min 0 W/m 0,0 km/h (0 Bft) 95,74 %
10.08.2023 23:16 18,4 C 16,7 C 13,3 C 86 % 1021,4 hPa 0,0 l/m 0 min 0 min 0 W/m 0,0 km/h (0 Bft) 93,62 %
10.08.2023 23:18 18,4 C 16,7 C 13,3 C 86 % 1021,4 hPa 0,0 l/m 0 min 0 min 0 W/m 0,0 km/h (0 Bft) 95,74 %
10.08.2023 23:20 18,3 C 16,7 C 13,3 C 86 % 1021,4 hPa 0,0 l/m 0 min 0 min 0 W/m 0,0 km/h (0 Bft) 95,65 %
10.08.2023 23:22 18,3 C 16,7 C 13,3 C 86 % 1021,5 hPa 0,0 l/m 0 min 0 min 0 W/m 0,0 km/h (0 Bft) 97,87 %
10.08.2023 23:24 18,3 C 16,7 C 13,3 C 86 % 1021,5 hPa 0,0 l/m 0 min 0 min 0 W/m 0,0 km/h (0 Bft) 95,74 %
10.08.2023 23:26 18,2 C 16,7 C 13,3 C 86 % 1021,5 hPa 0,0 l/m 0 min 0 min 0 W/m 0,0 km/h (0 Bft) 97,87 %
10.08.2023 23:28 18,2 C 16,7 C 13,3 C 87 % 1021,4 hPa 0,0 l/m 0 min 0 min 0 W/m 0,0 km/h (0 Bft) 97,87 %
10.08.2023 23:30 18,2 C 16,1 C 12,8 C 87 % 1021,5 hPa 0,0 l/m 0 min 0 min 0 W/m 0,0 km/h (0 Bft) 97,87 %
10.08.2023 23:32 18,1 C 16,1 C 12,8 C 87 % 1021,5 hPa 0,0 l/m 0 min 0 min 0 W/m 0,0 km/h (0 Bft) 97,87 %
10.08.2023 23:34 18,1 C 16,1 C 12,8 C 86 % 1021,5 hPa 0,0 l/m 0 min 0 min 0 W/m 0,0 km/h (0 Bft) 95,65 %
10.08.2023 23:36 18,0 C 16,7 C 12,8 C 86 % 1021,5 hPa 0,0 l/m 0 min 0 min 0 W/m 0,0 km/h (0 Bft) 97,87 %
10.08.2023 23:38 18,0 C 16,1 C 12,8 C 87 % 1021,5 hPa 0,0 l/m 0 min 0 min 0 W/m 0,0 km/h (0 Bft) 97,87 %
10.08.2023 23:40 17,9 C 16,1 C 12,8 C 87 % 1021,5 hPa 0,0 l/m 0 min 0 min 0 W/m 0,0 km/h (0 Bft) 97,87 %
10.08.2023 23:42 17,9 C 16,1 C 12,8 C 87 % 1021,5 hPa 0,0 l/m 0 min 0 min 0 W/m 0,0 km/h (0 Bft) 97,87 %
10.08.2023 23:44 17,9 C 16,1 C 12,8 C 87 % 1021,5 hPa 0,0 l/m 0 min 0 min 0 W/m 0,0 km/h (0 Bft) 100,00 %
10.08.2023 23:46 17,9 C 16,1 C 12,8 C 87 % 1021,5 hPa 0,0 l/m 0 min 0 min 0 W/m 0,0 km/h (0 Bft) 97,83 %
10.08.2023 23:48 17,8 C 16,1 C 12,8 C 88 % 1021,5 hPa 0,0 l/m 0 min 0 min 0 W/m 0,0 km/h (0 Bft) 100,00 %
10.08.2023 23:50 17,8 C 16,1 C 12,8 C 88 % 1021,5 hPa 0,0 l/m 0 min 0 min 0 W/m 0,0 km/h (0 Bft) 100,00 %
10.08.2023 23:52 17,8 C 16,1 C 12,8 C 88 % 1021,5 hPa 0,0 l/m 0 min 0 min 0 W/m 0,0 km/h (0 Bft) 100,00 %
10.08.2023 23:54 17,7 C 16,1 C 12,8 C 88 % 1021,4 hPa 0,0 l/m 0 min 0 min 0 W/m 0,0 km/h (0 Bft) 100,00 %
10.08.2023 23:56 17,7 C 16,1 C 12,8 C 88 % 1021,4 hPa 0,0 l/m 0 min 0 min 0 W/m 0,0 km/h (0 Bft) 100,00 %
10.08.2023 23:58 17,7 C 16,1 C 12,8 C 88 % 1021,5 hPa 0,0 l/m 0 min 0 min 0 W/m 0,0 km/h (0 Bft) 100,00 %
_ Min-Zeit 06:35 06:15 05:50 17:26 00:00 - - - - 00:00 15:10
Minimum _ 12,3 C 11,1 C 8,3 C 53 % 1020,6 hPa - - - - 0,0 km/h (0 Bft) 23,68 %
_ Max-Zeit 18:08 14:55 17:42 08:10 08:45 00:00 08:35 00:00 14:00 13:20 00:15
Maximum _ 26,8 C 33,9 C 21,7 C 95 % 1022,3 hPa 0,0 l/m 5 min 0 min 907 W/m 16,1 km/h
W (3 Bft)
100,00 %
Durchschnitt _ 19,0 C 20,2 C 14,2 C 76 % 1021,4 hPa #0,0 l/m #9:56 h #0 min. 464 W/m 2,7 km/h (1 Bft) 97,49 %
© 2023 W. Hausmann